This demonstration page uses our WeatherBlox Daily Observations layout. Learn more.

Left ArrowRight Arrow

44.8408, -93.29828

Hourly Observations for December 24, 2019

Temp ( °F °C ) Dew Point ( °F °C ) Humidity (%) Winds ( mph kmh ) Pressure ( in mb ) Visibility ( mi km ) Precip ( " mm )
12:53 am 00:53 Cloudy 34 1.1 27 -2.8 76 76 ESE 8 13 30.00 1016 10 16 0.00 0.00
1:53 am 01:53 Cloudy 33 0.6 28 -2.2 82 82 ESE 13 20 29.98 1015 9 14 0.00 0.00
2:53 am 02:53 Cloudy 34 1.1 28 -2.2 79 79 ESE 9 15 29.97 1015 8 13 0.00 0.00
3:53 am 03:53 Cloudy 35 1.7 30 -1.1 82 82 SE 9 15 29.95 1014 7 11 0.00 0.00
4:53 am 04:53 Cloudy 35 1.7 30 -1.1 82 82 SE 8 13 29.93 1014 7 11 0.00 0.00
5:53 am 05:53 Cloudy with Mist and Fog 34 1.1 30 -1.1 85 85 SE 8 13 29.91 1013 6 10 0.00 0.00
6:53 am 06:53 Cloudy with Mist and Fog 34 1.1 30 -1.1 85 85 SE 14 22 29.90 1013 5 8 0.00 0.00
7:42 am 07:42 Cloudy with Mist and Fog 34 1.1 30 -1.1 85 85 SE 9 15 29.92 1013 4 6 0.00 0.00
7:53 am 07:53 Cloudy with Mist and Fog 34 1.1 30 -1.1 85 85 SSE 9 15 29.92 1013 4 6 0.00 0.00
8:15 am 08:15 Cloudy with Mist and Fog 33 0.6 30 -1.1 89 89 ESE 14 22 29.88 1012 4 6 0.00 0.00
8:49 am 08:49 Cloudy with Mist and Fog 34 1 30 -1 87 87 SE 6 9 29.92 1013 3 4 0.00 0.00
8:53 am 08:53 Cloudy with Mist and Fog 33 0.6 30 -1.1 89 89 SSE 6 9 29.90 1013 3 4 0.00 0.00
9:00 am 09:00 Cloudy with Mist and Fog 34 1.1 31 -0.6 89 89 VRB 5 7 29.92 1013 3 4 0.00 0.00
9:09 am 09:09 Cloudy with Mist and Fog 34 1.1 31 -0.6 89 89 SE 6 9 29.92 1013 3 5 0.00 0.00
9:53 am 09:53 Cloudy with Mist and Fog 34 1.1 31 -0.6 89 89 SE 7 11 29.93 1013 4 6 0.00 0.00
10:53 am 10:53 Mostly Cloudy with Mist and Fog 35 1.7 32 0 89 89 SE 10 17 29.91 1013 4 6 0.00 0.00
11:00 am 11:00 Mostly Cloudy with Mist and Fog 36 2.2 32 0 86 86 SE 8 13 29.92 1013 4 6 0.00 0.00
11:53 am 11:53 Cloudy with Mist and Fog 36 2.2 32 0 86 86 SE 10 17 29.88 1012 4 6 0.00 0.00
12:53 pm 12:53 Cloudy with Mist and Fog 36 2.2 32 0 86 86 ESE 8 13 29.86 1011 4 6 0.00 0.00
1:53 pm 13:53 Cloudy with Mist and Fog 36 2.2 32 0 86 86 E 9 15 29.84 1011 4 6 0.00 0.00
2:53 pm 14:53 Cloudy with Mist and Fog 36 2.2 32 0 86 86 ESE 12 19 29.86 1011 4 6 0.00 0.00
3:53 pm 15:53 Cloudy with Mist and Fog 36 2.2 32 0 86 86 SSE 5 7 29.88 1012 5 8 0.00 0.00
4:53 pm 16:53 Cloudy with Mist and Fog 35 1.7 32 0 89 89 E 7 11 29.88 1012 6 10 0.00 0.00
5:53 pm 17:53 Cloudy with Mist and Fog 35 1.7 32 0 89 89 E 7 11 29.87 1012 6 10 0.00 0.00
6:07 pm 18:07 Cloudy with Mist and Fog 35 1.7 32 0 89 89 SE 8 13 29.89 1012 6 10 0.00 0.00
6:53 pm 18:53 Mostly Cloudy with Mist and Fog 35 1.7 32 0 89 89 ESE 3 6 29.88 1012 6 10 0.00 0.00
7:53 pm 19:53 Cloudy with Mist and Fog 34 1.1 31 -0.6 89 89 NE 3 6 29.87 1012 5 8 0.00 0.00
8:53 pm 20:53 Cloudy with Mist and Fog 34 1.1 31 -0.6 89 89 E 6 9 29.84 1010 5 8 0.00 0.00
9:53 pm 21:53 Cloudy with Mist and Fog 33 0.6 31 -0.6 92 92 E 5 7 29.85 1011 4 6 0.00 0.00
10:53 pm 22:53 Cloudy with Mist and Fog 33 0.6 31 -0.6 92 92 E 5 7 29.83 1010 4 6 0.00 0.00
11:53 pm 23:53 Cloudy with Mist and Fog 32 0 31 -0.6 96 96 ENE 5 7 29.83 1010 4 6 0.00 0.00

Powered by AerisWeather